This is the latest recevied weather packets stored in our database for station/object K5NWZ. If no packets are shown the sender has not sent any weather packets the latest 10 day(s).
| Time | Temp. | Humidity | Pressure | Rain* | Wind** | Luminosity | Snow |
|---|---|---|---|---|---|---|---|
| 1777848813 | 22.22° C | 19% | 1019.4 hPa | 0 mm | - | 129 W/m² | - |
| 1777848505 | 22.22° C | 19% | 1019.6 hPa | 0 mm | - | 136 W/m² | - |
| 1777848202 | 22.22° C | 19% | 1019.4 hPa | 0 mm | - | 128 W/m² | - |
| 1777847900 | 22.22° C | 19% | 1019.4 hPa | 0 mm | - | 137 W/m² | - |
| 1777847598 | 22.22° C | 20% | 1019.5 hPa | 0 mm | - | 146 W/m² | - |
| 1777847293 | 22.22° C | 19% | 1019.6 hPa | 0 mm | - | 151 W/m² | - |
| 1777846992 | 22.22° C | 20% | 1019.4 hPa | 0 mm | - | 160 W/m² | - |
| 1777846689 | 22.22° C | 20% | 1019.5 hPa | 0 mm | - | 170 W/m² | - |
| 1777846388 | 22.78° C | 19% | 1019.5 hPa | 0 mm | - | 156 W/m² | - |
| 1777846083 | 22.78° C | 20% | 1019.5 hPa | 0 mm | - | 178 W/m² | - |
| 1777845780 | 22.22° C | 20% | 1019.2 hPa | 0 mm | - | 202 W/m² | - |
| 1777845477 | 22.78° C | 18% | 1019.5 hPa | 0 mm | - | 207 W/m² | - |
| 1777845174 | 22.78° C | 18% | 1019.5 hPa | 0 mm | - | 210 W/m² | - |
| 1777844872 | 22.78° C | 19% | 1019.5 hPa | 0 mm | - | 219 W/m² | - |
| 1777844569 | 23.33° C | 18% | 1019.7 hPa | 0 mm | - | 230 W/m² | - |
| 1777844266 | 23.33° C | 17% | 1019.2 hPa | 0 mm | - | 235 W/m² | - |
| 1777843964 | 23.33° C | 16% | 1019.6 hPa | 0 mm | - | 254 W/m² | - |
| 1777843660 | 23.33° C | 16% | 1019.7 hPa | 0 mm | - | 282 W/m² | - |
| 1777843358 | 23.33° C | 16% | 1019.8 hPa | 0 mm | - | 303 W/m² | - |
| 1777843056 | 23.33° C | 16% | 1019.9 hPa | 0 mm | - | 310 W/m² | - |
| 1777842752 | 23.33° C | 17% | 1020.1 hPa | 0 mm | - | 340 W/m² | - |
| 1777842447 | 23.33° C | 16% | 1020.1 hPa | 0 mm | - | 361 W/m² | - |
| 1777842145 | 23.33° C | 17% | 1020.5 hPa | 0 mm | - | 356 W/m² | - |
| 1777841840 | 22.78° C | 18% | 1020.4 hPa | 0 mm | - | 337 W/m² | - |
| 1777841536 | 22.78° C | 17% | 1020.2 hPa | 0 mm | - | 317 W/m² | - |
* Rain latest hour (hover to see other rain measurements)
** Current wind speed in m/s (hover to see current wind gust speed)